LITUANICASAT-2 (42768 NORAD) Tracking and Keplerian Element Data

This shows tracking and keplerian element data for the satellite.

Feedback or suggestion? Click here.




ElementValue
Catalog42768
NameLITUANICASAT-2
Epoch Orbit8242
Epoch Day351.40021362
Epoch Year2018
RAAN47.6523
Inclination97.3809
Eccentricity0.0016582
Argument of Perigee140.0127
Mean Anonmoly220.2334
Mean Motion15.22079271
Decay Rate1.518E-05
L11 42768U 17036D 18351.40021362 .00001518 00000-0 69148-4 0 9997
L22 42768 97.3809 47.6523 0016582 140.0127 220.2334 15.22079271 82427

Live tracking and technical data element details for LITUANICASAT-2 (NORAD 42768). LITUANICASAT-2 can be tracked NOW for your location showing map with azimuth and elevation plus other details from your city location.

Track the satellite on the map from your city or location and see movement details for azimuth, elevation, latitude, longitude, range, height, and movement on the map or in text.







IsCatalogInMostPopularTable: catalog: 42768, numindb: 138
Update: records affected: 1



GetName: 42768 LITUANICASAT-2

Hit Count: updated at: Tue, 18 Dec 2018 21:52:13 GMT